Location: �clusier
(49.9361°N, 2.7869°E)
Time: 21:56:14
(UTC+00:00)

Thor Agena Rocket - Pass Details

Date: 16 June 2021
Orbit: 759 x 808 km, 99.0° (Epoch: 02 August)

Event Time Altitude Azimuth Distance (km) Brightness Sun altitude
Rises 23:26:19 0° 19° (NNE) 3,330 8.0 -16.5°
Reaches altitude 10° 23:28:45 10° 24° (NNE) 2,390 7.0 -16.5°
Maximum altitude 23:33:53 50° 100° (E) 1,008 4.0 -16.6°
Enters shadow 23:36:30 27° 162° (SSE) 1,491 4.4 -16.6°
